Regional Weather Roundup
Issued by NWS

Home | Current Version | Previous Version | Text Only | Print | Product List | Glossary Off
Versions: 1 2 3 4 5 6 7 8 9 10 11 12 13 14 15 16 17 18 19 20 21 22 23 24 25 26 27 28 29 30 31 32 33 34 35 36 37 38 39 40 41 42 43 44 45 46 47 48 49 50

000
ASUS43 KTOP 261859
RWRKS

WEATHER ROUNDUP FOR KANSAS
NATIONAL WEATHER SERVICE GOODLAND KS
200 PM CDT WED JUL 26 2017

NOTE:  "FAIR" INDICATES FEW OR NO CLOUDS BELOW 12,000 FEET WITH NO
SIGNIFICANT WEATHER AND/OR OBSTRUCTIONS TO VISIBILITY.

KSZ001>006-013>018-027>032-041>047-262000-
NORTHWEST KANSAS

CITY           SKY/WX    TMP DP  RH WIND       PRES   REMARKS
GOODLAND       PTSUNNY   81  66  60 N21G30    30.10S
HAYS           CLOUDY    94  66  39 W9        29.92F HX  97
HILL CITY      SUNNY     93  69  45 N10       29.95R HX  98
RUSSELL        CLOUDY    86  68  54 SW3       29.93S
$$

KSZ061>065-074>080-084>089-262000-
SOUTHWEST KANSAS

CITY           SKY/WX    TMP DP  RH WIND       PRES   REMARKS
DODGE CITY     CLOUDY    88  66  48 W8        30.01R
ELKHART          N/A     92  56  29 W7          N/A
GARDEN CITY    SUNNY     89  67  47 NW9       30.02S
GREAT BEND     LGT RAIN  83  72  69 W7        29.94R
LIBERAL        MOSUNNY   89  67  47 NW7       30.03F
$$

KSZ066>073-081>083-090>101-262000-
SOUTHEAST KANSAS

CITY           SKY/WX    TMP DP  RH WIND       PRES   REMARKS
CHANUTE        CLOUDY    90  74  59 S9        30.00F HX  99
COFFEYVILLE    CLOUDY    93  75  55 S12       29.98F HX 104
HUTCHINSON     CLOUDY    96  67  38 S14       29.93F HX 100
MEDICINE LODGE   N/A    100  62  28 SW15G29   29.92S HX 101
NEWTON         CLOUDY    87  74  64 SE13      29.96F HX  95
PARSONS        CLOUDY    90  75  61 S8        30.00F HX 100
WICHITA INTL   CLOUDY    96  70  42 S16       29.94S HX 102
WICHITA JABRA  CLOUDY    92  71  50 S12       29.95F HX  98
WICHITA MCCONL CLOUDY    93  70  46 S13       29.95F HX  98
WINFIELD       CLOUDY    98  69  38 S17G30    29.97F HX 104
$$

KSZ007>012-019>026-033>040-048>060-102>105-262000-
NORTHEAST KANSAS

CITY           SKY/WX    TMP DP  RH WIND       PRES   REMARKS
CONCORDIA      LGT RAIN  74  72  93 S24G35    29.90F
EMPORIA        PTSUNNY   83  74  74 SE16      29.98F
LAWRENCE       PTSUNNY   81  77  88 SE10      29.97F
MANHATTAN      LGT RAIN  77  75  93 S3        29.99F FOG
OLATHE IND     CLOUDY    80  75  84 SE14      29.99F HAZE
OLATHE EXE     CLOUDY    79  76  90 SE13      30.00F
SALINA         CLOUDY    81  74  79 E12       29.97F
TOPEKA BILLARD LGT RAIN  79  77  94 S8        29.97F
TOPEKA FORBES  CLOUDY    79  76  90 S10       29.97F
$$




USA.gov is the U.S. government's official web portal to all federal, state and local government web resources and services.